Flag for U.S.A. Weather past 2 weeks in Memphis, Tennessee, U.S.A.

Now
86 °F

Passing clouds.


Feels Like: 87 °F
Forecast: 70 / 93 °F
Wind: 8 mph from North

Location: Memphis International Airport

Current Time: Jul 31, 2015 at 9:15:46 PM

Latest Report: Jul 31, 2015 at 7:54 PM


Visibility: 10 mi

Pressure: 30.00 "Hg

Humidity: 45%

Dew point: 62 °F

Location of MemphisLocation

Historic Weather in Memphis — Graph

°F

Memphis temperature yesterday

Maximum temperature yesterday: 91 °F (at 1:54 PM)
Minimum temperature yesterday: 79 °F (at 11:54 PM)
Average temperature yesterday: 85 °F

Past Weeks' High & Low Weather Summary

 TemperatureHumidityPressure
High99 °F (Jul 29, 2:54 PM)91% (Jul 22, 6:54 AM)30.11 "Hg (Jul 22, 6:54 AM)
Low73 °F (Jul 31, 5:54 AM)35% (Jul 31, 4:54 PM)29.80 "Hg (Jul 20, 6:54 PM)
Average86 °F65%29.95 "Hg
* Reported Jul 16 7:54 PM — Jul 31 7:54 PM, Memphis, Weather by CustomWeather, © 2015

Note: Actual official high and low records may vary slightly from our data, if they occured in-between our weather recording intervals... More about our weather records

Advertising

Memphis weather history for previous 24 hours

 ConditionsComfort  
Time TempWeatherWind HumidityBarometerVisibility
7:54 PM
Fri, Jul 31
86 °FPassing clouds.8 mph45%30.00 "Hg10 mi
6:54 PM89 °FScattered clouds.13 mph39%30.00 "Hg10 mi
5:54 PM91 °FScattered clouds.12 mph38%30.00 "Hg10 mi
4:54 PM92 °FScattered clouds.8 mph35%30.02 "Hg10 mi
3:54 PM93 °FScattered clouds.12 mph37%30.03 "Hg10 mi
2:54 PM92 °FScattered clouds.9 mph38%30.05 "Hg10 mi
1:54 PM93 °FPassing clouds.7 mph38%30.05 "Hg10 mi
12:54 PM91 °FPassing clouds.10 mph41%30.06 "Hg10 mi
11:54 AM90 °FPassing clouds.15 mph38%30.08 "Hg10 mi
10:54 AM88 °FPassing clouds.16 mph42%30.09 "Hg10 mi
9:54 AM86 °FPassing clouds.14 mph45%30.09 "Hg10 mi
8:54 AM82 °FPassing clouds.9 mph55%30.10 "Hg10 mi
7:54 AM78 °FPassing clouds.7 mph64%30.10 "Hg10 mi
6:54 AM74 °FPassing clouds.7 mph76%30.08 "Hg10 mi
5:54 AM73 °FPassing clouds.No wind74%30.07 "Hg10 mi
4:54 AM74 °FPassing clouds.5 mph69%30.06 "Hg10 mi
3:54 AM74 °FPassing clouds.7 mph69%30.06 "Hg10 mi
2:54 AM74 °FPassing clouds.6 mph67%30.06 "Hg10 mi
1:54 AM76 °FPassing clouds.7 mph62%30.05 "Hg10 mi
12:54 AM78 °FPassing clouds.5 mph56%30.05 "Hg10 mi
11:54 PM
Thu, Jul 30
79 °FPassing clouds.8 mph54%30.06 "Hg10 mi
10:54 PM81 °FPassing clouds.8 mph53%30.07 "Hg10 mi
9:54 PM81 °FPassing clouds.8 mph54%30.08 "Hg10 mi
Weather by CustomWeather, © 2015

See weather overviewHow to use our weather pages